Regional Weather Roundup
Issued by NWS Sterling, VA

Home | Current Version | Previous Version | Text Only | Print | Product List | Glossary On
Versions: 1 2 3 4 5 6 7 8 9 10 11 12 13 14 15 16 17 18 19 20 21 22 23 24 25 26 27 28 29 30 31 32 33 34 35 36 37 38 39 40 41 42 43 44 45 46 47 48 49 50
000
ASUS41 KLWX 290510
RWRLWX

REGIONAL WEATHER ROUNDUP
NATIONAL WEATHER SERVICE BALTIMORE MD/WASHINGTON DC
100 AM EDT SUN MAR 29 2015

Note: "FAIR" indicates few or no clouds below 12,000 feet
with no significant weather and/or obstructions to visibility.
 TC=TEMPERATURE CELSIUS

 * =Non NWS site. Station does not report precipitation (e.g. rain,
    snow, etc.), thunder, or fog.

DCZ001-MDZ009-015-VAZ040>042-051-053>054-290600-
WASHINGTON METRO

CITY           SKY/WX    TMP DP  RH WIND       PRES   REMARKS
WASHINGTON NAT CLEAR     31   6  35 NW16      30.27R WCI  20
DULLES         CLEAR     28   3  34 NW18G25   30.27R WCI  15
ANDREWS AFB    CLEAR     29   6  37 NW15G23   30.24R WCI  17
FT BELVOIR     CLEAR     29   6  38 NW13      30.27R WCI  19
QUANTICO       CLEAR     30   7  37 NW14      30.30R WCI  19
COLLEGE PARK*  CLEAR     30   7  37 NW8       30.26R WCI  23
LEESBURG*      CLEAR     28   9  43 N10G17    30.28R WCI  19
MANASSAS*      CLEAR     28  10  47 NW9       30.28S WCI  20
GAITHERSBURG*  CLEAR     25   3  39 NW6G16    30.28R

$$

MDZ006>007-011-014-290600-
BALTIMORE METRO

CITY           SKY/WX    TMP DP  RH WIND       PRES   REMARKS
BWI AIRPORT    PTCLDY    28   6  39 NW10      30.23R WCI  19
MD SCIENCE CTR   N/A     30   6  36 MISG      30.23R
MARTIN STATE   CLEAR     30  12  47 NW7       30.24R
ANNAPOLIS      CLEAR     30  10  43 NW9       30.23R WCI  22

$$

MDZ012-015-019>023-290600-
MARYLAND EASTERN SHORE

CITY           SKY/WX    TMP DP  RH WIND       PRES   REMARKS
OCEAN CITY     CLEAR     28  12  51 NW8       30.20R WCI  20
SALISBURY      CLEAR     29  11  47 NW7       30.21R
BAY BRIDGE AP*   N/A     30  10  43 NW14G21   30.23R WCI  20
CAMBRIDGE*     CLEAR     32  12  43 NW16      30.21S WCI  21
EASTON*        CLEAR     31  15  51 NW13G21   30.25R WCI  21

$$

MDZ017>025-290600-
SOUTHERN MARYLAND

CITY           SKY/WX    TMP DP  RH WIND       PRES   REMARKS
PATUXENT RIVER CLEAR     30   7  37 NW15G23   30.24S WCI  19
ST INIGOES     CLEAR     30   7  37 NW12G18   30.24S WCI  20
LEONARDTOWN*   CLEAR     30   7  37 W8        30.26S WCI  23

$$

MDZ003>005-290600-
NORTH CENTRAL MARYLAND

CITY           SKY/WX    TMP DP  RH WIND       PRES   REMARKS
FREDERICK*     CLEAR     30  -6  21 N15G21    30.29R WCI  19
HAGERSTOWN APT CLEAR     24   3  40 NW9       30.25R WCI  14
WESTMINSTER*   PTCLDY    25   0  33 NW9       30.21R WCI  15

$$

MDZ501>502-290600-
WESTERN MARYLAND

CITY           SKY/WX    TMP DP  RH WIND       PRES   REMARKS
OAKLAND*       CLEAR     14   9  79 NW9       30.14S WCI   2
CUMBERLAND*    CLEAR     27   3  36 N7        30.32S

$$

VAZ025>031-290600-
SHENANDOAH VALLEY

CITY           SKY/WX    TMP DP  RH WIND       PRES   REMARKS
WINCHESTER*    CLEAR     28   0  29 NW12      30.26R WCI  18
FRONT ROYAL*   FAIR      27   9  46 N7        30.26R
LURAY*         FAIR      30  10  43 NW9       30.25R WCI  22
NEW MARKET*    FAIR      27   6  41 CALM      30.25R
STAUNTON*      CLEAR     24   9  52 W3        30.25S
WAYNESBORO*    FAIR      24   6  46 W5        30.22S

$$

WVZ021-048>050-054>055-290600-
EASTERN WEST VIRGINIA PANHANDLE

CITY           SKY/WX    TMP DP  RH WIND       PRES   REMARKS
MARTINSBURG    CLEAR     27   3  35 NW10      30.28R WCI  17
PETERSBURG*    CLEAR     27   5  39 N8        30.29R WCI  18

$$

VAZ036>039-050-290600-
CENTRAL FOOTHILLS

CITY           SKY/WX    TMP DP  RH WIND       PRES   REMARKS
CHARLOTTESVILL CLEAR     26  10  50 SW5       30.26R
CULPEPER*      CLEAR     27  10  50 NW3       30.28R
ORANGE*        CLEAR     25  19  80 CALM      30.28S
GORDONSVILLE*  FAIR      28  10  46 CALM      30.26S
WARRENTON*     FAIR      26  17  67 CALM      30.27R

$$

VAZ055>057-290600-
NORTH AND CENTRAL PIEDMONT

CITY           SKY/WX    TMP DP  RH WIND       PRES   REMARKS
FREDERICKSBRG* CLEAR     29  13  52 CALM      30.28R
STAFFORD*      CLEAR     22  12  66 NW5       30.33R

$$

NCZ024-NYZ072-PAZ021-071-VAZ022-071-290600-
OTHER REGIONAL OBSERVATIONS

CITY           SKY/WX    TMP DP  RH WIND       PRES   REMARKS
NEW YORK CITY  CLOUDY    26  15  63 VRB6G17   30.15R
PHILADELPHIA   MOCLDY    27   5  39 N17G29    30.20R WCI  14
PITTSBURGH     CLEAR     19   8  62 W5        30.28S
ROANOKE        CLEAR     28   5  37 NW9       30.29R WCI  19
RICHMOND       PTCLDY    29  10  45 NW5       30.28R
RALEIGH        CLEAR     32   9  38 VRB6      30.29R

$$

ANZ530>537-290600-
MARINE OBSERVATIONS

STATION/POSITION TIME  TEMP    WIND        PRES
                       AIR SEA DIR/SP/G
                 (UTC) (F)     (DEG/KT/KT) (MB)
THOMAS PT LIGHT  0500                        N/A
BALT KEY BRIDGE  0400   30     270/ 14/ 17 1023.2R
COVE POINT       0400   29     320/ 16/ 19 1023.5R
LEWISETTA        0400   32 44              1024.2R
SOLOMONS ISLAND  0418      43                N/A
PINEY POINT      0400          350/ 21/ 24   N/A

$$



USA.gov is the U.S. government's official web portal to all federal, state and local government web resources and services.